星链-4323 (STARLINK-4323 )

导读

STARLINK-4323是美国太空探索技术公司Starlink星座中的一颗卫星,于2022年7月11日发射升空,属于星链互联网卫星项目的组成部分。星链项目旨在构建全球卫星互联网星座,为全球偏远地区、海洋等网络覆盖薄弱区域提供高速互联网接入服务,该卫星承担星座通信转发任务。

Basic Information
目录编号:
53069
目录名称:
STARLINK-4323
国际标识:
2022-077AC
轨道中心:
EARTH
卫星名称:
星链-4323
卫星全名:
星链-4323 (STARLINK-4323 )
卫星状态:
在轨 (已飞行1516 天)
发射日期:
2022-07-11 UTC
国别 :
美国 (US)
星等 :
--
Orbit Information
数据来源 国际轨道数据
星历时间: 2026-09-04T16:00:02+0800
5小时前
查看轨道信息
半长轴: 6843.866km
偏心率: 0.0001379
轨道倾角: 97.286°
近地点辐角 104.386°
升交点赤经 62.405°
平近点角 50.970°
近地点: 464.785km
远地点: 466.673km
周期: 93.910分钟
每日圈数: 15.333827
Detailed Information
固有亮度:
5
最大亮度:
2.5
卫星平台:
Starlink v1.5
覆盖范围:
全球
运营商:
太空探索技术公司
运营商所在国:
美国
制造商(研发单位):
太空探索技术公司
制造商所在国:
美国
使用方式:
暂无
Satellite Introduction
星链(Starlink)计划是由太空探索技术公司(SpaceX)提出的一个巨型低轨卫星互联网星座项目,计划在2019年至2024年间在太空搭建由约1.2万颗卫星组成的“星链”网络,其中1584颗将部署在地球上空550千米处的近地轨道,并从2020年开始工作。该卫星仍在工作。
2D Orbit Map
3D Orbit Map
Orbit Altitude Analysis Chart
Orbit Inclination Analysis Chart
Orbit Comprehensive Analysis Chart
View Comprehensive Chart
Conjunction Data List
Event ID Objects TCA Miss Dist (km) Collision Risk Probability Collision Risk Index (CRI) Action
CDM_260905-064000-346205-306921
2026-09-05T
06:40:37+0000
0.210 km
中距离
6.944458E-4 高风险 0.92
CDM_260904-132905-306906-237921
HAWK-11B (62379)
2026-09-04T
13:29:21+0000
1.869 km
极远距离
3.322738E-6 低风险 0.45
CDM_260901-050005-306906-745122
2026-09-01T
05:00:28+0000
2.800 km
极远距离
1.365403E-6 低风险 0.38
CDM_260904-084505-236205-306921
2026-09-04T
08:45:07+0000
2.975 km
极远距离
8.770203E-7 极低风险 0.34
CDM_260906-011405-306906-829421
2026-09-06T
01:14:08+0000
2.968 km
极远距离
8.408754E-7 极低风险 0.33